Holbrook, NY

12:13 PM EST on February 19, 2017 (GMT -0500)
Long Island Mac Arthur

Weather History for KISP - December, 2013

Change the Weather History Date:

Monday, December 9, 2013

  Actual Average Record
Temperature  
Mean Temperature 39 °F 38 °F  
Max Temperature 46 °F 45 °F 66 °F (1991)
Min Temperature 32 °F 30 °F 16 °F (2002)
Degree Days  
Heating Degree Days 26 27  
Month to date heating degree days 203 234  
Since 1 July heating degree days 1167 1250  
Cooling Degree Days 0 0  
Month to date cooling degree days 0 0  
Year to date cooling degree days 957 787  
Moisture  
Dew Point 34 °F    
Average Humidity 89    
Maximum Humidity 96    
Minimum Humidity 82    
Precipitation  
Precipitation 0.25 in 0.14 in 2.14 in (2014)
Month to date precipitation 0.95 1.26  
Year to date precipitation 34.37 43.44  
Snow  
Snow T in 0.10 in 0.50 in (1986)
Month to date snowfall 0.7 0.9  
Since 1 July snowfall 1.0 1.4  
Snow Depth 0.00 in    
Sea Level Pressure  
Sea Level Pressure 30.13 in    
Wind  
Wind Speed 10 mph (NNE)    
Max Wind Speed 20 mph    
Max Gust Speed 29 mph    
Visibility 3 miles    
Events Rain , Snow    
T = Trace of Precipitation, MM = Missing Value Source: NWS Daily Summary

Daily Weather History Graph

Daily Weather History Graph

Search for Another Location

Airport or City:

Trip Planner

Search our weather history database for the weather conditions in past years. The results will help you decide how hot, cold, wet, or windy it might be!

Date:

Astronomy

Dec. 09, 2013 Rise Set
Actual Time 7:05 AM EST 4:24 PM EST
Civil Twilight 6:34 AM EST 4:55 PM EST
Nautical Twilight 5:59 AM EST 5:29 PM EST
Astronomical Twilight 5:26 AM EST 6:03 PM EST
Moon 11:54 AM EST (12/9) No Moon Set
Length of Visible Light 10h 21m
Length of Day
9h 19m
Waxing Crescent, 51% of the Moon is Illuminated
Dec 9
Waxing Crescent
Dec 17
Full
Dec 25
Last Quarter
Jan 1
New
Jan 7
First Quarter

Hourly Weather History & Observations

Time (EST) Temp. Windchill Dew Point Humidity Pressure Visibility Wind Dir Wind Speed Gust Speed Precip Events Conditions
12:56 AM 33.1 °F 25.5 °F 28.9 °F 85% 30.35 in 1.8 mi NE 9.2 mph 19.6 mph 0.02 in Snow Light Snow
1:08 AM 33.8 °F 25.3 °F 30.2 °F 87% 30.33 in 2.5 mi ENE 11.5 mph - 0.00 in   Overcast
1:18 AM 33.8 °F 24.3 °F 30.2 °F 87% 30.33 in 3.0 mi ENE 13.8 mph - 0.00 in   Overcast
1:26 AM 33.8 °F 24.8 °F 30.2 °F 87% 30.34 in 3.0 mi ENE 12.7 mph - 0.00 in   Overcast
1:56 AM 33.1 °F 22.6 °F 30.0 °F 89% 30.31 in 5.0 mi ENE 16.1 mph 21.9 mph 0.00 in   Overcast
2:15 AM 33.8 °F 24.3 °F 30.2 °F 87% 30.30 in 3.0 mi NE 13.8 mph - 0.01 in Rain Light Freezing Rain
2:36 AM 33.8 °F 23.9 °F 30.2 °F 87% 30.30 in 5.0 mi NE 15.0 mph - 0.01 in Rain Light Freezing Rain
2:43 AM 33.8 °F 23.5 °F 30.2 °F 87% 30.30 in 7.0 mi ENE 16.1 mph 23.0 mph 0.01 in Rain Light Rain
2:56 AM 33.1 °F 23.9 °F 30.0 °F 89% 30.29 in 5.0 mi NE 12.7 mph - 0.01 in   Overcast
3:04 AM 33.8 °F 24.3 °F 28.4 °F 81% 30.28 in 4.0 mi NE 13.8 mph 24.2 mph N/A   Overcast
3:12 AM 33.8 °F 24.3 °F 28.4 °F 81% 30.27 in 5.0 mi ENE 13.8 mph 24.2 mph 0.00 in Rain Light Freezing Rain
3:51 AM 33.8 °F 23.2 °F 30.2 °F 87% 30.24 in 2.5 mi ENE 17.3 mph 21.9 mph 0.01 in Rain Light Freezing Rain
3:56 AM 33.1 °F 22.6 °F 28.9 °F 85% 30.24 in 3.0 mi ENE 16.1 mph 25.3 mph 0.01 in Rain Light Freezing Rain
4:46 AM 33.8 °F 23.9 °F 30.2 °F 87% 30.21 in 4.0 mi NE 15.0 mph - 0.01 in   Overcast
4:56 AM 34.0 °F 23.4 °F 30.9 °F 89% 30.20 in 4.0 mi ENE 17.3 mph 23.0 mph 0.01 in   Overcast
5:42 AM 33.8 °F 23.9 °F 32.0 °F 93% 30.17 in 9.0 mi ENE 15.0 mph - 0.01 in   Overcast
5:56 AM 35.1 °F 25.5 °F 32.0 °F 89% 30.16 in 8.0 mi NE 15.0 mph - 0.01 in Rain Light Rain
6:56 AM 36.0 °F 28.0 °F 34.0 °F 93% 30.13 in 5.0 mi NE 11.5 mph - 0.03 in Rain Light Rain
6:58 AM 35.6 °F 28.0 °F 33.8 °F 93% 30.13 in 4.0 mi NE 10.4 mph - 0.00 in Rain Light Rain
7:26 AM 37.4 °F 30.3 °F 35.6 °F 93% 30.12 in 2.0 mi NE 10.4 mph - 0.02 in Rain Light Rain
7:56 AM 37.0 °F 31.0 °F 35.1 °F 93% 30.14 in 2.0 mi North 8.1 mph - 0.03 in Rain Light Rain
8:11 AM 37.4 °F 32.1 °F 35.6 °F 93% 30.13 in 1.2 mi NNE 6.9 mph - 0.02 in Rain Light Rain
8:48 AM 37.4 °F 30.8 °F 35.6 °F 93% 30.13 in 1.0 mi NNE 9.2 mph - 0.04 in Rain Light Rain
8:56 AM 37.9 °F 32.7 °F 36.0 °F 93% 30.13 in 1.0 mi NNE 6.9 mph - 0.04 in Rain Light Rain
9:42 AM 41.0 °F 34.3 °F 39.2 °F 93% 30.08 in 1.0 mi NNE 11.5 mph - 0.04 in Rain Light Rain
9:56 AM 41.0 °F 35.2 °F 39.0 °F 93% 30.07 in 1.0 mi NNE 9.2 mph - 0.04 in   Light Drizzle
10:56 AM 43.0 °F 38.2 °F 41.0 °F 93% 30.04 in 1.0 mi NNE 8.1 mph - 0.02 in   Light Drizzle
11:56 AM 45.0 °F 39.7 °F 43.0 °F 93% 29.97 in 1.0 mi North 10.4 mph - 0.02 in   Light Drizzle
12:56 PM 44.1 °F 39.0 °F 42.1 °F 93% 29.92 in 1.0 mi North 9.2 mph - 0.01 in   Light Drizzle
1:56 PM 44.1 °F 39.0 °F 42.1 °F 93% 29.91 in 1.0 mi North 9.2 mph - 0.00 in   Light Drizzle
2:56 PM 42.1 °F 36.1 °F 39.9 °F 92% 29.94 in 1.0 mi NNW 10.4 mph - 0.00 in   Overcast
3:56 PM 41.0 °F 35.8 °F 39.0 °F 93% 29.96 in 1.0 mi NW 8.1 mph - 0.00 in   Overcast
4:56 PM 41.0 °F 37.1 °F 39.0 °F 93% 29.96 in 1.0 mi West 5.8 mph - N/A   Overcast
5:56 PM 41.0 °F 35.2 °F 39.0 °F 93% 29.96 in 3.0 mi West 9.2 mph - N/A   Overcast
6:27 PM 39.2 °F 33.6 °F 37.4 °F 93% 29.96 in 3.0 mi West 8.1 mph - N/A   Overcast
6:56 PM 39.0 °F 33.4 °F 37.0 °F 93% 29.96 in 3.0 mi West 8.1 mph - N/A   Overcast
7:56 PM 39.0 °F 32.8 °F 36.0 °F 89% 29.99 in 6.0 mi West 9.2 mph - N/A   Mostly Cloudy
8:56 PM 37.0 °F 30.4 °F 34.0 °F 89% 29.99 in 7.0 mi West 9.2 mph - N/A   Mostly Cloudy
9:56 PM 36.0 °F 29.6 °F 33.1 °F 89% 29.98 in 6.0 mi West 8.1 mph - N/A   Mostly Cloudy
10:56 PM 34.0 °F 28.0 °F 32.0 °F 92% 29.98 in 5.0 mi WSW 6.9 mph - N/A   Mostly Cloudy
11:56 PM 34.0 °F 26.6 °F 32.0 °F 92% 29.98 in 4.0 mi WSW 9.2 mph - N/A   Mostly Cloudy